owner,sensor,date,latitude,longitude,air_temperature,qcFlag 
COMPS,ioos:station:USF.COMPS:ARP:1,2017-11-01T00:00:00Z,28.4330,-82.6670,16.67,1111122 
COMPS,ioos:station:USF.COMPS:ARP:1,2017-11-01T00:06:00Z,28.4330,-82.6670,16.5,1111122 
COMPS,ioos:station:USF.COMPS:ARP:1,2017-11-01T00:12:00Z,28.4330,-82.6670,16.39,1111122 
COMPS,ioos:station:USF.COMPS:ARP:1,2017-11-01T00:18:00Z,28.4330,-82.6670,16.39,1111122 
COMPS,ioos:station:USF.COMPS:ARP:1,2017-11-01T00:24:00Z,28.4330,-82.6670,16.4,1111122 
COMPS,ioos:station:USF.COMPS:ARP:1,2017-11-01T00:30:00Z,28.4330,-82.6670,16.4,1111122 
COMPS,ioos:station:USF.COMPS:ARP:1,2017-11-01T00:36:00Z,28.4330,-82.6670,16.27,1111122 
COMPS,ioos:station:USF.COMPS:ARP:1,2017-11-01T00:42:00Z,28.4330,-82.6670,16.13,1111122 
COMPS,ioos:station:USF.COMPS:ARP:1,2017-11-01T00:48:00Z,28.4330,-82.6670,15.99,1111122 
COMPS,ioos:station:USF.COMPS:ARP:1,2017-11-01T00:54:00Z,28.4330,-82.6670,16.04,1111122 
COMPS,ioos:station:USF.COMPS:ARP:1,2017-11-01T01:00:00Z,28.4330,-82.6670,15.76,1111122 
COMPS,ioos:station:USF.COMPS:ARP:1,2017-11-01T01:06:00Z,28.4330,-82.6670,15.56,1111122 
COMPS,ioos:station:USF.COMPS:ARP:1,2017-11-01T01:12:00Z,28.4330,-82.6670,15.4,1111122 
COMPS,ioos:station:USF.COMPS:ARP:1,2017-11-01T01:18:00Z,28.4330,-82.6670,15.34,1111122 
COMPS,ioos:station:USF.COMPS:ARP:1,2017-11-01T01:24:00Z,28.4330,-82.6670,15.47,1111122 
COMPS,ioos:station:USF.COMPS:ARP:1,2017-11-01T01:30:00Z,28.4330,-82.6670,15.6,1111122 
COMPS,ioos:station:USF.COMPS:ARP:1,2017-11-01T01:36:00Z,28.4330,-82.6670,15.64,1111122 
COMPS,ioos:station:USF.COMPS:ARP:1,2017-11-01T01:42:00Z,28.4330,-82.6670,15.33,1111122 
COMPS,ioos:station:USF.COMPS:ARP:1,2017-11-01T01:48:00Z,28.4330,-82.6670,15.07,1111122 
COMPS,ioos:station:USF.COMPS:ARP:1,2017-11-01T01:54:00Z,28.4330,-82.6670,15.37,1111122 
COMPS,ioos:station:USF.COMPS:ARP:1,2017-11-01T02:00:00Z,28.4330,-82.6670,14.95,1111122 
COMPS,ioos:station:USF.COMPS:ARP:1,2017-11-01T02:06:00Z,28.4330,-82.6670,14.77,1111122 
COMPS,ioos:station:USF.COMPS:ARP:1,2017-11-01T02:12:00Z,28.4330,-82.6670,14.66,1111122 
COMPS,ioos:station:USF.COMPS:ARP:1,2017-11-01T02:18:00Z,28.4330,-82.6670,14.58,1111122 
COMPS,ioos:station:USF.COMPS:ARP:1,2017-11-01T02:24:00Z,28.4330,-82.6670,14.73,1111122 
COMPS,ioos:station:USF.COMPS:ARP:1,2017-11-01T02:30:00Z,28.4330,-82.6670,14.87,1111122 
COMPS,ioos:station:USF.COMPS:ARP:1,2017-11-01T02:36:00Z,28.4330,-82.6670,14.69,1111122 
COMPS,ioos:station:USF.COMPS:ARP:1,2017-11-01T02:42:00Z,28.4330,-82.6670,14.73,1111122 
COMPS,ioos:station:USF.COMPS:ARP:1,2017-11-01T02:48:00Z,28.4330,-82.6670,14.56,1111122 
COMPS,ioos:station:USF.COMPS:ARP:1,2017-11-01T02:54:00Z,28.4330,-82.6670,14.67,1111122 
COMPS,ioos:station:USF.COMPS:ARP:1,2017-11-01T03:00:00Z,28.4330,-82.6670,14.57,1111122 
COMPS,ioos:station:USF.COMPS:ARP:1,2017-11-01T03:06:00Z,28.4330,-82.6670,14.8,1111122 
COMPS,ioos:station:USF.COMPS:ARP:1,2017-11-01T03:12:00Z,28.4330,-82.6670,15.05,1111122 
COMPS,ioos:station:USF.COMPS:ARP:1,2017-11-01T03:18:00Z,28.4330,-82.6670,14.95,1111122 
COMPS,ioos:station:USF.COMPS:ARP:1,2017-11-01T03:24:00Z,28.4330,-82.6670,14.96,1111122 
COMPS,ioos:station:USF.COMPS:ARP:1,2017-11-01T03:30:00Z,28.4330,-82.6670,14.93,1111122 
COMPS,ioos:station:USF.COMPS:ARP:1,2017-11-01T03:36:00Z,28.4330,-82.6670,14.87,1111122 
COMPS,ioos:station:USF.COMPS:ARP:1,2017-11-01T03:42:00Z,28.4330,-82.6670,14.8,1111122 
COMPS,ioos:station:USF.COMPS:ARP:1,2017-11-01T03:48:00Z,28.4330,-82.6670,15.02,1111122 
COMPS,ioos:station:USF.COMPS:ARP:1,2017-11-01T03:54:00Z,28.4330,-82.6670,15.47,1111122 
COMPS,ioos:station:USF.COMPS:ARP:1,2017-11-01T04:00:00Z,28.4330,-82.6670,15.38,1111122 
COMPS,ioos:station:USF.COMPS:ARP:1,2017-11-01T04:06:00Z,28.4330,-82.6670,15.47,1111122 
COMPS,ioos:station:USF.COMPS:ARP:1,2017-11-01T04:12:00Z,28.4330,-82.6670,15.46,1111122 
COMPS,ioos:station:USF.COMPS:ARP:1,2017-11-01T04:18:00Z,28.4330,-82.6670,15.35,1111122 
COMPS,ioos:station:USF.COMPS:ARP:1,2017-11-01T04:24:00Z,28.4330,-82.6670,15.37,1111122 
COMPS,ioos:station:USF.COMPS:ARP:1,2017-11-01T04:30:00Z,28.4330,-82.6670,15.37,1111122 
COMPS,ioos:station:USF.COMPS:ARP:1,2017-11-01T04:36:00Z,28.4330,-82.6670,15.34,1111122 
COMPS,ioos:station:USF.COMPS:ARP:1,2017-11-01T04:42:00Z,28.4330,-82.6670,15.33,1111122 
COMPS,ioos:station:USF.COMPS:ARP:1,2017-11-01T04:48:00Z,28.4330,-82.6670,15.25,1111122 
COMPS,ioos:station:USF.COMPS:ARP:1,2017-11-01T04:54:00Z,28.4330,-82.6670,15.37,1111122 
COMPS,ioos:station:USF.COMPS:ARP:1,2017-11-01T05:00:00Z,28.4330,-82.6670,15.11,1111122 
COMPS,ioos:station:USF.COMPS:ARP:1,2017-11-01T05:06:00Z,28.4330,-82.6670,15.16,1111122 
COMPS,ioos:station:USF.COMPS:ARP:1,2017-11-01T05:12:00Z,28.4330,-82.6670,15.16,1111122 
COMPS,ioos:station:USF.COMPS:ARP:1,2017-11-01T05:18:00Z,28.4330,-82.6670,15.2,1111122 
COMPS,ioos:station:USF.COMPS:ARP:1,2017-11-01T05:24:00Z,28.4330,-82.6670,15.28,1111122 
COMPS,ioos:station:USF.COMPS:ARP:1,2017-11-01T05:30:00Z,28.4330,-82.6670,15.26,1111122 
COMPS,ioos:station:USF.COMPS:ARP:1,2017-11-01T05:36:00Z,28.4330,-82.6670,15.21,1111122 
COMPS,ioos:station:USF.COMPS:ARP:1,2017-11-01T05:42:00Z,28.4330,-82.6670,15.2,1111122 
COMPS,ioos:station:USF.COMPS:ARP:1,2017-11-01T05:48:00Z,28.4330,-82.6670,15.17,1111122 
COMPS,ioos:station:USF.COMPS:ARP:1,2017-11-01T05:54:00Z,28.4330,-82.6670,15.26,1111122 
COMPS,ioos:station:USF.COMPS:ARP:1,2017-11-01T06:00:00Z,28.4330,-82.6670,15.05,1111122 
COMPS,ioos:station:USF.COMPS:ARP:1,2017-11-01T06:06:00Z,28.4330,-82.6670,14.94,1111122 
COMPS,ioos:station:USF.COMPS:ARP:1,2017-11-01T06:12:00Z,28.4330,-82.6670,14.94,1111122 
COMPS,ioos:station:USF.COMPS:ARP:1,2017-11-01T06:18:00Z,28.4330,-82.6670,14.93,1111122 
COMPS,ioos:station:USF.COMPS:ARP:1,2017-11-01T06:24:00Z,28.4330,-82.6670,14.81,1111122 
COMPS,ioos:station:USF.COMPS:ARP:1,2017-11-01T06:30:00Z,28.4330,-82.6670,14.71,1111122 
COMPS,ioos:station:USF.COMPS:ARP:1,2017-11-01T06:36:00Z,28.4330,-82.6670,14.62,1111122 
COMPS,ioos:station:USF.COMPS:ARP:1,2017-11-01T06:42:00Z,28.4330,-82.6670,14.49,1111122 
COMPS,ioos:station:USF.COMPS:ARP:1,2017-11-01T06:48:00Z,28.4330,-82.6670,14.4,1111122 
COMPS,ioos:station:USF.COMPS:ARP:1,2017-11-01T06:54:00Z,28.4330,-82.6670,14.72,1111122 
COMPS,ioos:station:USF.COMPS:ARP:1,2017-11-01T07:00:00Z,28.4330,-82.6670,14.37,1111122 
COMPS,ioos:station:USF.COMPS:ARP:1,2017-11-01T07:06:00Z,28.4330,-82.6670,14.39,1111122 
COMPS,ioos:station:USF.COMPS:ARP:1,2017-11-01T07:12:00Z,28.4330,-82.6670,14.33,1111122 
COMPS,ioos:station:USF.COMPS:ARP:1,2017-11-01T07:18:00Z,28.4330,-82.6670,14.27,1111122 
COMPS,ioos:station:USF.COMPS:ARP:1,2017-11-01T07:24:00Z,28.4330,-82.6670,14.36,1111122 
COMPS,ioos:station:USF.COMPS:ARP:1,2017-11-01T07:30:00Z,28.4330,-82.6670,14.27,1111122 
COMPS,ioos:station:USF.COMPS:ARP:1,2017-11-01T07:36:00Z,28.4330,-82.6670,14.26,1111122 
COMPS,ioos:station:USF.COMPS:ARP:1,2017-11-01T07:42:00Z,28.4330,-82.6670,14.3,1111122 
COMPS,ioos:station:USF.COMPS:ARP:1,2017-11-01T07:48:00Z,28.4330,-82.6670,14.32,1111122 
COMPS,ioos:station:USF.COMPS:ARP:1,2017-11-01T07:54:00Z,28.4330,-82.6670,14.44,1111122 
COMPS,ioos:station:USF.COMPS:ARP:1,2017-11-01T08:00:00Z,28.4330,-82.6670,14.15,1111122 
COMPS,ioos:station:USF.COMPS:ARP:1,2017-11-01T08:06:00Z,28.4330,-82.6670,14.12,1111122 
COMPS,ioos:station:USF.COMPS:ARP:1,2017-11-01T08:12:00Z,28.4330,-82.6670,14.1,1111122 
COMPS,ioos:station:USF.COMPS:ARP:1,2017-11-01T08:18:00Z,28.4330,-82.6670,13.98,1111122 
COMPS,ioos:station:USF.COMPS:ARP:1,2017-11-01T08:24:00Z,28.4330,-82.6670,13.98,1111122 
COMPS,ioos:station:USF.COMPS:ARP:1,2017-11-01T08:30:00Z,28.4330,-82.6670,13.92,1111122 
COMPS,ioos:station:USF.COMPS:ARP:1,2017-11-01T08:36:00Z,28.4330,-82.6670,13.84,1111122 
COMPS,ioos:station:USF.COMPS:ARP:1,2017-11-01T08:42:00Z,28.4330,-82.6670,13.75,1111122 
COMPS,ioos:station:USF.COMPS:ARP:1,2017-11-01T08:48:00Z,28.4330,-82.6670,13.71,1111122 
COMPS,ioos:station:USF.COMPS:ARP:1,2017-11-01T08:54:00Z,28.4330,-82.6670,13.88,1111122 
COMPS,ioos:station:USF.COMPS:ARP:1,2017-11-01T09:00:00Z,28.4330,-82.6670,13.78,1111122 
COMPS,ioos:station:USF.COMPS:ARP:1,2017-11-01T09:06:00Z,28.4330,-82.6670,13.73,1111122 
COMPS,ioos:station:USF.COMPS:ARP:1,2017-11-01T09:12:00Z,28.4330,-82.6670,13.69,1111122 
COMPS,ioos:station:USF.COMPS:ARP:1,2017-11-01T09:18:00Z,28.4330,-82.6670,13.73,1111122 
COMPS,ioos:station:USF.COMPS:ARP:1,2017-11-01T09:24:00Z,28.4330,-82.6670,13.73,1111122 
COMPS,ioos:station:USF.COMPS:ARP:1,2017-11-01T09:30:00Z,28.4330,-82.6670,13.77,1111122 
COMPS,ioos:station:USF.COMPS:ARP:1,2017-11-01T09:36:00Z,28.4330,-82.6670,13.69,1111122 
COMPS,ioos:station:USF.COMPS:ARP:1,2017-11-01T09:42:00Z,28.4330,-82.6670,13.71,1111122 
COMPS,ioos:station:USF.COMPS:ARP:1,2017-11-01T09:48:00Z,28.4330,-82.6670,13.71,1111122 
COMPS,ioos:station:USF.COMPS:ARP:1,2017-11-01T09:54:00Z,28.4330,-82.6670,13.97,1111122 
COMPS,ioos:station:USF.COMPS:ARP:1,2017-11-01T10:00:00Z,28.4330,-82.6670,13.66,1111122 
COMPS,ioos:station:USF.COMPS:ARP:1,2017-11-01T10:06:00Z,28.4330,-82.6670,13.7,1111122 
COMPS,ioos:station:USF.COMPS:ARP:1,2017-11-01T10:12:00Z,28.4330,-82.6670,13.65,1111122 
COMPS,ioos:station:USF.COMPS:ARP:1,2017-11-01T10:18:00Z,28.4330,-82.6670,13.58,1111122 
COMPS,ioos:station:USF.COMPS:ARP:1,2017-11-01T10:24:00Z,28.4330,-82.6670,13.53,1111122 
COMPS,ioos:station:USF.COMPS:ARP:1,2017-11-01T10:30:00Z,28.4330,-82.6670,13.44,1111122 
COMPS,ioos:station:USF.COMPS:ARP:1,2017-11-01T10:36:00Z,28.4330,-82.6670,13.46,1111122 
COMPS,ioos:station:USF.COMPS:ARP:1,2017-11-01T10:42:00Z,28.4330,-82.6670,13.47,1111122 
COMPS,ioos:station:USF.COMPS:ARP:1,2017-11-01T10:48:00Z,28.4330,-82.6670,13.43,1111122 
COMPS,ioos:station:USF.COMPS:ARP:1,2017-11-01T10:54:00Z,28.4330,-82.6670,13.58,1111122 
COMPS,ioos:station:USF.COMPS:ARP:1,2017-11-01T11:00:00Z,28.4330,-82.6670,13.38,1111122 
COMPS,ioos:station:USF.COMPS:ARP:1,2017-11-01T11:06:00Z,28.4330,-82.6670,13.31,1111122 
COMPS,ioos:station:USF.COMPS:ARP:1,2017-11-01T11:12:00Z,28.4330,-82.6670,13.43,1111122 
COMPS,ioos:station:USF.COMPS:ARP:1,2017-11-01T11:18:00Z,28.4330,-82.6670,13.43,1111122 
COMPS,ioos:station:USF.COMPS:ARP:1,2017-11-01T11:24:00Z,28.4330,-82.6670,13.36,1111122 
COMPS,ioos:station:USF.COMPS:ARP:1,2017-11-01T11:30:00Z,28.4330,-82.6670,13.32,1111122 
COMPS,ioos:station:USF.COMPS:ARP:1,2017-11-01T11:36:00Z,28.4330,-82.6670,13.29,1111122 
COMPS,ioos:station:USF.COMPS:ARP:1,2017-11-01T11:42:00Z,28.4330,-82.6670,13.29,1111122 
COMPS,ioos:station:USF.COMPS:ARP:1,2017-11-01T11:48:00Z,28.4330,-82.6670,13.3,1111122 
COMPS,ioos:station:USF.COMPS:ARP:1,2017-11-01T11:54:00Z,28.4330,-82.6670,13.42,1111122 
COMPS,ioos:station:USF.COMPS:ARP:1,2017-11-01T12:00:00Z,28.4330,-82.6670,13.33,1111122 
COMPS,ioos:station:USF.COMPS:ARP:1,2017-11-01T12:06:00Z,28.4330,-82.6670,13.54,1111122 
COMPS,ioos:station:USF.COMPS:ARP:1,2017-11-01T12:12:00Z,28.4330,-82.6670,13.83,1111122 
COMPS,ioos:station:USF.COMPS:ARP:1,2017-11-01T12:18:00Z,28.4330,-82.6670,14.24,1111122 
COMPS,ioos:station:USF.COMPS:ARP:1,2017-11-01T12:24:00Z,28.4330,-82.6670,14.65,1111122 
COMPS,ioos:station:USF.COMPS:ARP:1,2017-11-01T12:30:00Z,28.4330,-82.6670,14.98,1111122 
COMPS,ioos:station:USF.COMPS:ARP:1,2017-11-01T12:36:00Z,28.4330,-82.6670,15.34,1111122 
COMPS,ioos:station:USF.COMPS:ARP:1,2017-11-01T12:42:00Z,28.4330,-82.6670,15.75,1111122 
COMPS,ioos:station:USF.COMPS:ARP:1,2017-11-01T12:48:00Z,28.4330,-82.6670,16.13,1111122 
COMPS,ioos:station:USF.COMPS:ARP:1,2017-11-01T12:54:00Z,28.4330,-82.6670,16.53,1111122 
COMPS,ioos:station:USF.COMPS:ARP:1,2017-11-01T13:00:00Z,28.4330,-82.6670,16.64,1111122 
COMPS,ioos:station:USF.COMPS:ARP:1,2017-11-01T13:06:00Z,28.4330,-82.6670,16.97,1111122 
COMPS,ioos:station:USF.COMPS:ARP:1,2017-11-01T13:12:00Z,28.4330,-82.6670,17.31,1111122 
COMPS,ioos:station:USF.COMPS:ARP:1,2017-11-01T13:18:00Z,28.4330,-82.6670,17.6,1111122 
COMPS,ioos:station:USF.COMPS:ARP:1,2017-11-01T13:24:00Z,28.4330,-82.6670,17.94,1111122 
COMPS,ioos:station:USF.COMPS:ARP:1,2017-11-01T13:30:00Z,28.4330,-82.6670,18.23,1111122 
COMPS,ioos:station:USF.COMPS:ARP:1,2017-11-01T13:36:00Z,28.4330,-82.6670,18.53,1111122 
COMPS,ioos:station:USF.COMPS:ARP:1,2017-11-01T13:42:00Z,28.4330,-82.6670,18.85,1111122 
COMPS,ioos:station:USF.COMPS:ARP:1,2017-11-01T13:48:00Z,28.4330,-82.6670,19.21,1111122 
COMPS,ioos:station:USF.COMPS:ARP:1,2017-11-01T13:54:00Z,28.4330,-82.6670,19.68,1111122 
COMPS,ioos:station:USF.COMPS:ARP:1,2017-11-01T14:00:00Z,28.4330,-82.6670,19.8,1111122 
COMPS,ioos:station:USF.COMPS:ARP:1,2017-11-01T14:06:00Z,28.4330,-82.6670,20.14,1111122 
COMPS,ioos:station:USF.COMPS:ARP:1,2017-11-01T14:12:00Z,28.4330,-82.6670,20.52,1111122 
COMPS,ioos:station:USF.COMPS:ARP:1,2017-11-01T14:18:00Z,28.4330,-82.6670,20.76,1111122 
COMPS,ioos:station:USF.COMPS:ARP:1,2017-11-01T14:24:00Z,28.4330,-82.6670,21.01,1111122 
COMPS,ioos:station:USF.COMPS:ARP:1,2017-11-01T14:30:00Z,28.4330,-82.6670,21.24,1111122 
COMPS,ioos:station:USF.COMPS:ARP:1,2017-11-01T14:36:00Z,28.4330,-82.6670,21.47,1111122 
COMPS,ioos:station:USF.COMPS:ARP:1,2017-11-01T14:42:00Z,28.4330,-82.6670,21.61,1111122 
COMPS,ioos:station:USF.COMPS:ARP:1,2017-11-01T14:48:00Z,28.4330,-82.6670,21.95,1111122 
COMPS,ioos:station:USF.COMPS:ARP:1,2017-11-01T14:54:00Z,28.4330,-82.6670,22.41,1111122 
COMPS,ioos:station:USF.COMPS:ARP:1,2017-11-01T15:00:00Z,28.4330,-82.6670,22.32,1111122 
COMPS,ioos:station:USF.COMPS:ARP:1,2017-11-01T15:06:00Z,28.4330,-82.6670,22.49,1111122 
COMPS,ioos:station:USF.COMPS:ARP:1,2017-11-01T15:12:00Z,28.4330,-82.6670,22.7,1111122 
COMPS,ioos:station:USF.COMPS:ARP:1,2017-11-01T15:18:00Z,28.4330,-82.6670,22.67,1111122 
COMPS,ioos:station:USF.COMPS:ARP:1,2017-11-01T15:24:00Z,28.4330,-82.6670,22.9,1111122 
COMPS,ioos:station:USF.COMPS:ARP:1,2017-11-01T15:30:00Z,28.4330,-82.6670,22.97,1111122 
COMPS,ioos:station:USF.COMPS:ARP:1,2017-11-01T15:36:00Z,28.4330,-82.6670,23.04,1111122 
COMPS,ioos:station:USF.COMPS:ARP:1,2017-11-01T15:42:00Z,28.4330,-82.6670,23.27,1111122 
COMPS,ioos:station:USF.COMPS:ARP:1,2017-11-01T15:48:00Z,28.4330,-82.6670,23.34,1111122 
COMPS,ioos:station:USF.COMPS:ARP:1,2017-11-01T15:54:00Z,28.4330,-82.6670,23.8,1111122 
COMPS,ioos:station:USF.COMPS:ARP:1,2017-11-01T16:00:00Z,28.4330,-82.6670,23.67,1111122 
COMPS,ioos:station:USF.COMPS:ARP:1,2017-11-01T16:06:00Z,28.4330,-82.6670,23.79,1111122 
COMPS,ioos:station:USF.COMPS:ARP:1,2017-11-01T16:12:00Z,28.4330,-82.6670,23.75,1111122 
COMPS,ioos:station:USF.COMPS:ARP:1,2017-11-01T16:18:00Z,28.4330,-82.6670,23.95,1111122 
COMPS,ioos:station:USF.COMPS:ARP:1,2017-11-01T16:24:00Z,28.4330,-82.6670,23.85,1111122 
COMPS,ioos:station:USF.COMPS:ARP:1,2017-11-01T16:30:00Z,28.4330,-82.6670,24.06,1111122 
COMPS,ioos:station:USF.COMPS:ARP:1,2017-11-01T16:36:00Z,28.4330,-82.6670,24.38,1111122 
COMPS,ioos:station:USF.COMPS:ARP:1,2017-11-01T16:42:00Z,28.4330,-82.6670,24.41,1111122 
COMPS,ioos:station:USF.COMPS:ARP:1,2017-11-01T16:48:00Z,28.4330,-82.6670,24.51,1111122 
COMPS,ioos:station:USF.COMPS:ARP:1,2017-11-01T16:54:00Z,28.4330,-82.6670,24.89,1111122 
COMPS,ioos:station:USF.COMPS:ARP:1,2017-11-01T17:00:00Z,28.4330,-82.6670,24.72,1111122 
COMPS,ioos:station:USF.COMPS:ARP:1,2017-11-01T17:06:00Z,28.4330,-82.6670,24.45,1111122 
COMPS,ioos:station:USF.COMPS:ARP:1,2017-11-01T17:12:00Z,28.4330,-82.6670,24.72,1111122 
COMPS,ioos:station:USF.COMPS:ARP:1,2017-11-01T17:18:00Z,28.4330,-82.6670,24.89,1111122 
COMPS,ioos:station:USF.COMPS:ARP:1,2017-11-01T17:24:00Z,28.4330,-82.6670,24.69,1111122 
COMPS,ioos:station:USF.COMPS:ARP:1,2017-11-01T17:30:00Z,28.4330,-82.6670,24.72,1111122 
COMPS,ioos:station:USF.COMPS:ARP:1,2017-11-01T17:36:00Z,28.4330,-82.6670,24.28,1111122 
COMPS,ioos:station:USF.COMPS:ARP:1,2017-11-01T17:42:00Z,28.4330,-82.6670,24.57,1111122 
COMPS,ioos:station:USF.COMPS:ARP:1,2017-11-01T17:48:00Z,28.4330,-82.6670,24.83,1111122 
COMPS,ioos:station:USF.COMPS:ARP:1,2017-11-01T17:54:00Z,28.4330,-82.6670,24.93,1111122 
COMPS,ioos:station:USF.COMPS:ARP:1,2017-11-01T18:00:00Z,28.4330,-82.6670,24.56,1111122 
COMPS,ioos:station:USF.COMPS:ARP:1,2017-11-01T18:06:00Z,28.4330,-82.6670,23.2,1111122 
COMPS,ioos:station:USF.COMPS:ARP:1,2017-11-01T18:12:00Z,28.4330,-82.6670,23.35,1111122 
COMPS,ioos:station:USF.COMPS:ARP:1,2017-11-01T18:18:00Z,28.4330,-82.6670,23.11,1111122 
COMPS,ioos:station:USF.COMPS:ARP:1,2017-11-01T18:24:00Z,28.4330,-82.6670,22.27,1111122 
COMPS,ioos:station:USF.COMPS:ARP:1,2017-11-01T18:30:00Z,28.4330,-82.6670,22.7,1111122 
COMPS,ioos:station:USF.COMPS:ARP:1,2017-11-01T18:36:00Z,28.4330,-82.6670,22.72,1111122 
COMPS,ioos:station:USF.COMPS:ARP:1,2017-11-01T18:42:00Z,28.4330,-82.6670,22.27,1111122 
COMPS,ioos:station:USF.COMPS:ARP:1,2017-11-01T18:48:00Z,28.4330,-82.6670,21.63,1111122 
COMPS,ioos:station:USF.COMPS:ARP:1,2017-11-01T18:54:00Z,28.4330,-82.6670,22.29,1111122 
COMPS,ioos:station:USF.COMPS:ARP:1,2017-11-01T19:00:00Z,28.4330,-82.6670,22.5,1111122 
COMPS,ioos:station:USF.COMPS:ARP:1,2017-11-01T19:06:00Z,28.4330,-82.6670,21.69,1111122 
COMPS,ioos:station:USF.COMPS:ARP:1,2017-11-01T19:12:00Z,28.4330,-82.6670,21.61,1111122 
COMPS,ioos:station:USF.COMPS:ARP:1,2017-11-01T19:18:00Z,28.4330,-82.6670,21.48,1111122 
COMPS,ioos:station:USF.COMPS:ARP:1,2017-11-01T19:24:00Z,28.4330,-82.6670,22.64,1111122 
COMPS,ioos:station:USF.COMPS:ARP:1,2017-11-01T19:30:00Z,28.4330,-82.6670,22.73,1111122 
COMPS,ioos:station:USF.COMPS:ARP:1,2017-11-01T19:36:00Z,28.4330,-82.6670,22.83,1111122 
COMPS,ioos:station:USF.COMPS:ARP:1,2017-11-01T19:42:00Z,28.4330,-82.6670,22.51,1111122 
COMPS,ioos:station:USF.COMPS:ARP:1,2017-11-01T19:48:00Z,28.4330,-82.6670,22.76,1111122 
COMPS,ioos:station:USF.COMPS:ARP:1,2017-11-01T19:54:00Z,28.4330,-82.6670,22.06,1111122 
COMPS,ioos:station:USF.COMPS:ARP:1,2017-11-01T20:00:00Z,28.4330,-82.6670,22.36,1111122 
COMPS,ioos:station:USF.COMPS:ARP:1,2017-11-01T20:06:00Z,28.4330,-82.6670,22.89,1111122 
COMPS,ioos:station:USF.COMPS:ARP:1,2017-11-01T20:12:00Z,28.4330,-82.6670,22.66,1111122 
COMPS,ioos:station:USF.COMPS:ARP:1,2017-11-01T20:18:00Z,28.4330,-82.6670,22.83,1111122 
COMPS,ioos:station:USF.COMPS:ARP:1,2017-11-01T20:24:00Z,28.4330,-82.6670,22.43,1111122 
COMPS,ioos:station:USF.COMPS:ARP:1,2017-11-01T20:30:00Z,28.4330,-82.6670,22.6,1111122 
COMPS,ioos:station:USF.COMPS:ARP:1,2017-11-01T20:36:00Z,28.4330,-82.6670,22.69,1111122 
COMPS,ioos:station:USF.COMPS:ARP:1,2017-11-01T20:42:00Z,28.4330,-82.6670,22.33,1111122 
COMPS,ioos:station:USF.COMPS:ARP:1,2017-11-01T20:48:00Z,28.4330,-82.6670,21.93,1111122 
COMPS,ioos:station:USF.COMPS:ARP:1,2017-11-01T20:54:00Z,28.4330,-82.6670,22.33,1111122 
COMPS,ioos:station:USF.COMPS:ARP:1,2017-11-01T21:00:00Z,28.4330,-82.6670,22.86,1111122 
COMPS,ioos:station:USF.COMPS:ARP:1,2017-11-01T21:06:00Z,28.4330,-82.6670,22.96,1111122 
COMPS,ioos:station:USF.COMPS:ARP:1,2017-11-01T21:12:00Z,28.4330,-82.6670,22.83,1111122 
COMPS,ioos:station:USF.COMPS:ARP:1,2017-11-01T21:18:00Z,28.4330,-82.6670,22.79,1111122 
COMPS,ioos:station:USF.COMPS:ARP:1,2017-11-01T21:24:00Z,28.4330,-82.6670,22.95,1111122 
COMPS,ioos:station:USF.COMPS:ARP:1,2017-11-01T21:30:00Z,28.4330,-82.6670,23.0,1111122 
COMPS,ioos:station:USF.COMPS:ARP:1,2017-11-01T21:36:00Z,28.4330,-82.6670,22.89,1111122 
COMPS,ioos:station:USF.COMPS:ARP:1,2017-11-01T21:42:00Z,28.4330,-82.6670,22.99,1111122 
COMPS,ioos:station:USF.COMPS:ARP:1,2017-11-01T21:48:00Z,28.4330,-82.6670,22.8,1111122 
COMPS,ioos:station:USF.COMPS:ARP:1,2017-11-01T21:54:00Z,28.4330,-82.6670,23.2,1111122 
COMPS,ioos:station:USF.COMPS:ARP:1,2017-11-01T22:00:00Z,28.4330,-82.6670,22.82,1111122 
COMPS,ioos:station:USF.COMPS:ARP:1,2017-11-01T22:06:00Z,28.4330,-82.6670,22.57,1111122 
COMPS,ioos:station:USF.COMPS:ARP:1,2017-11-01T22:12:00Z,28.4330,-82.6670,22.53,1111122 
COMPS,ioos:station:USF.COMPS:ARP:1,2017-11-01T22:18:00Z,28.4330,-82.6670,22.26,1111122 
COMPS,ioos:station:USF.COMPS:ARP:1,2017-11-01T22:24:00Z,28.4330,-82.6670,21.97,1111122 
COMPS,ioos:station:USF.COMPS:ARP:1,2017-11-01T22:30:00Z,28.4330,-82.6670,21.8,1111122 
COMPS,ioos:station:USF.COMPS:ARP:1,2017-11-01T22:36:00Z,28.4330,-82.6670,21.43,1111122 
COMPS,ioos:station:USF.COMPS:ARP:1,2017-11-01T22:42:00Z,28.4330,-82.6670,21.13,1111122 
COMPS,ioos:station:USF.COMPS:ARP:1,2017-11-01T22:48:00Z,28.4330,-82.6670,20.86,1111122 
COMPS,ioos:station:USF.COMPS:ARP:1,2017-11-01T22:54:00Z,28.4330,-82.6670,20.86,1111122 
COMPS,ioos:station:USF.COMPS:ARP:1,2017-11-01T23:00:00Z,28.4330,-82.6670,20.58,1111122 
COMPS,ioos:station:USF.COMPS:ARP:1,2017-11-01T23:06:00Z,28.4330,-82.6670,20.57,1111122 
COMPS,ioos:station:USF.COMPS:ARP:1,2017-11-01T23:12:00Z,28.4330,-82.6670,20.56,1111122 
COMPS,ioos:station:USF.COMPS:ARP:1,2017-11-01T23:18:00Z,28.4330,-82.6670,20.52,1111122 
COMPS,ioos:station:USF.COMPS:ARP:1,2017-11-01T23:24:00Z,28.4330,-82.6670,20.51,1111122 
COMPS,ioos:station:USF.COMPS:ARP:1,2017-11-01T23:30:00Z,28.4330,-82.6670,20.48,1111122 
COMPS,ioos:station:USF.COMPS:ARP:1,2017-11-01T23:36:00Z,28.4330,-82.6670,20.43,1111122 
COMPS,ioos:station:USF.COMPS:ARP:1,2017-11-01T23:42:00Z,28.4330,-82.6670,20.4,1111122 
COMPS,ioos:station:USF.COMPS:ARP:1,2017-11-01T23:48:00Z,28.4330,-82.6670,20.41,1111122 
COMPS,ioos:station:USF.COMPS:ARP:1,2017-11-01T23:54:00Z,28.4330,-82.6670,20.59,1111122 
COMPS,ioos:station:USF.COMPS:ARP:1,2017-11-02T00:00:00Z,28.4330,-82.6670,20.45,1111122 
COMPS,ioos:station:USF.COMPS:ARP:1,2017-11-02T00:06:00Z,28.4330,-82.6670,20.5,1111122 
COMPS,ioos:station:USF.COMPS:ARP:1,2017-11-02T00:12:00Z,28.4330,-82.6670,20.48,1111122 
COMPS,ioos:station:USF.COMPS:ARP:1,2017-11-02T00:18:00Z,28.4330,-82.6670,20.48,1111122 
COMPS,ioos:station:USF.COMPS:ARP:1,2017-11-02T00:24:00Z,28.4330,-82.6670,20.51,1111122 
COMPS,ioos:station:USF.COMPS:ARP:1,2017-11-02T00:30:00Z,28.4330,-82.6670,20.61,1111122 
COMPS,ioos:station:USF.COMPS:ARP:1,2017-11-02T00:36:00Z,28.4330,-82.6670,20.62,1111122 
COMPS,ioos:station:USF.COMPS:ARP:1,2017-11-02T00:42:00Z,28.4330,-82.6670,20.62,1111122 
COMPS,ioos:station:USF.COMPS:ARP:1,2017-11-02T00:48:00Z,28.4330,-82.6670,20.62,1111122 
COMPS,ioos:station:USF.COMPS:ARP:1,2017-11-02T00:54:00Z,28.4330,-82.6670,20.78,1111122 
COMPS,ioos:station:USF.COMPS:ARP:1,2017-11-02T01:00:00Z,28.4330,-82.6670,20.61,1111122 
COMPS,ioos:station:USF.COMPS:ARP:1,2017-11-02T01:06:00Z,28.4330,-82.6670,20.58,1111122 
COMPS,ioos:station:USF.COMPS:ARP:1,2017-11-02T01:12:00Z,28.4330,-82.6670,20.49,1111122 
COMPS,ioos:station:USF.COMPS:ARP:1,2017-11-02T01:18:00Z,28.4330,-82.6670,20.43,1111122 
COMPS,ioos:station:USF.COMPS:ARP:1,2017-11-02T01:24:00Z,28.4330,-82.6670,20.45,1111122 
COMPS,ioos:station:USF.COMPS:ARP:1,2017-11-02T01:30:00Z,28.4330,-82.6670,20.43,1111122 
COMPS,ioos:station:USF.COMPS:ARP:1,2017-11-02T01:36:00Z,28.4330,-82.6670,20.41,1111122 
COMPS,ioos:station:USF.COMPS:ARP:1,2017-11-02T01:42:00Z,28.4330,-82.6670,20.36,1111122 
COMPS,ioos:station:USF.COMPS:ARP:1,2017-11-02T01:48:00Z,28.4330,-82.6670,20.34,1111122 
COMPS,ioos:station:USF.COMPS:ARP:1,2017-11-02T01:54:00Z,28.4330,-82.6670,20.52,1111122 
COMPS,ioos:station:USF.COMPS:ARP:1,2017-11-02T02:00:00Z,28.4330,-82.6670,20.34,1111122 
COMPS,ioos:station:USF.COMPS:ARP:1,2017-11-02T02:06:00Z,28.4330,-82.6670,20.31,1111122 
COMPS,ioos:station:USF.COMPS:ARP:1,2017-11-02T02:12:00Z,28.4330,-82.6670,20.11,1111122 
COMPS,ioos:station:USF.COMPS:ARP:1,2017-11-02T02:18:00Z,28.4330,-82.6670,19.89,1111122 
COMPS,ioos:station:USF.COMPS:ARP:1,2017-11-02T02:24:00Z,28.4330,-82.6670,19.66,1111122 
COMPS,ioos:station:USF.COMPS:ARP:1,2017-11-02T02:30:00Z,28.4330,-82.6670,19.42,1111122 
COMPS,ioos:station:USF.COMPS:ARP:1,2017-11-02T02:36:00Z,28.4330,-82.6670,19.2,1111122 
COMPS,ioos:station:USF.COMPS:ARP:1,2017-11-02T02:42:00Z,28.4330,-82.6670,19.01,1111122 
COMPS,ioos:station:USF.COMPS:ARP:1,2017-11-02T02:48:00Z,28.4330,-82.6670,18.91,1111122 
COMPS,ioos:station:USF.COMPS:ARP:1,2017-11-02T02:54:00Z,28.4330,-82.6670,18.91,1111122 
COMPS,ioos:station:USF.COMPS:ARP:1,2017-11-02T03:00:00Z,28.4330,-82.6670,18.6,1111122 
COMPS,ioos:station:USF.COMPS:ARP:1,2017-11-02T03:06:00Z,28.4330,-82.6670,18.43,1111122 